Location: Northam
(31.6525°S, 116.6655°E)
Time: 23:56:13
(UTC+08:00)

Envisat - Pass Details

Date: 22 May 2021
Orbit: 764 x 766 km, 98.1° (Epoch: 14 June)

Event Time Altitude Azimuth Distance (km) Brightness Sun altitude
Rises 17:37:38 0° 169° (SSE) 3,263 5.9 -4.1°
Reaches altitude 10° 17:39:58 10° 169° (SSE) 2,330 5.2 -4.5°
Maximum altitude 17:45:07 87° 255° (WSW) 778 3.1 -5.6°
Drops below altitude 10° 17:50:12 10° 345° (NNW) 2,301 6.0 -6.6°
Sets 17:52:29 0° 346° (NNW) 3,219 6.8 -7.0°
